STARLINK-36412, 67518

Orbit data source: Space-Track

STARLINK-36412, 67518 is a payload satellite owned by SpaceX/Seattle (US) in LEO that was launched on Sun, 18 Jan 2026 UTC via an FALCON 9 launch vehicle from the Air Force Eastern Test Range (AFETR). Payload-class satellites include a variety of spacecraft equipped with specific instruments for various scientific and technological missions. These include communications satellites like Starlink; space stations such as the ISS; scientific satellites like the Hubble; Earth observation satellites from companies like Planet Labs, Umbra, and HawkEye 360; GPS; miniature CubeSats for education and research; and military/defense satellites.

Loading next visibility...
Identifier
67518, 2026-012AB
Orbit
LEO
Country
Flag of USUS
Related business
Manufacturer
SpaceX/Seattle
Mission
Operational Commercial Communications
Bus & Motor
STARLINK V2MO, Unknown motor
Mass
575 kg wet, ~530 kg dry
Launch date (UTC)
2026-01-18 (5 months ago)
Launch vehicle
FALCON 9
Launch site
Air Force Eastern Test Range (AFETR)
Object type
Payload
Rocket body
Debris
Shape & HBR
Box + 2 Pan, 17.7 m
Radar Cross Section
36.964 m², Large (>1 m²)

Expand to show TLE details & history
Last TLE update: 17 hours ago

TLE from 17 hours ago
0 STARLINK-36412
1 67518U 26012AB  26171.13990938  .00019198  00000-0  70474-3 0  9990
2 67518  43.0007  95.5150 0001189 266.8062  93.2654 15.27609025 23435
Epoch: 2026-06-20T03:21Z
TLE epoch observation values (Epoch: 2026-06-20T03:21:28.170Z)
Latitude
0.00001°
Longitude
136.78882°
Altitude
482.784 km
Speed
7.626 km/s
True Right ascension
06h 22m 03s
True Declination
0° 00' 00"
Sunlit
Object was in daylight at epoch
Visualization orbit readout
Latitude
Unknown
Longitude
Unknown
Altitude
Unknown
Speed
Unknown
Apparent Right ascension
Unknown
Apparent Declination
Unknown
Sunlit
N/A
Visualization observer readout
Local Sidereal Time
07:24:42
Azimuth
Unknown
Elevation
Unknown
Doppler factor
Unknown
Orbital elements
Apogee altitude
485.723 km
Perigee altitude
484.091 km
Semi-major axis
6,863.044 km
Eccentricity
0.00012
Inclination
43.0007°
RAAN
95.515°
Arg. of periapsis
266.8062°
True anomaly
93.279°
Mean anomaly
93.2654°
Eccentric anomaly
93.2722°
Mean motion
3.8174 °/min
Orbital period
94.3 mins
BSTAR
0.00070474
Loading maneuver chart data...
Computing Atmospheric mass density...
Loading historical data...
Loading historical data...
Loading historical data...
Loading historical data...
Loading historical data...
Loading historical data...
Loading historical data...

Documentation

Showing up to 5 results
|